Location: Malvern Link
(52.1333°N, 2.3000°W)
Time: 07:21:44
(UTC+00:00)

NOSS 5 (C) - Pass Details

Date: 18 September 2020
Orbit: 377 x 1731 km, 63.3° (Epoch: 20 October)

Event Time Altitude Azimuth Distance (km) Brightness Sun altitude
Rises 20:24:38 0° 315° (NW) 2,258 9.4 -19.6°
Reaches altitude 10° 20:26:32 10° 317° (NW) 1,427 8.0 -19.9°
Enters shadow 20:29:27 73° 21° (NNE) 448 4.3 -20.2°
